KC8P Weather Reports


time (UTC)temp
C
wind
direction
speed
KPH
gust
KPH
rain 1hr
cm
rain 24hr
cm
rain mn
cm
humidity
%
barometer
mb
20260904043657 18 197 0.0 0.0 0.00 0.00 0.58 98 1015.6
20260904043551 18 197 0.0 0.0 0.00 0.00 0.58 98 1015.6
20260904043446 18 198 0.0 0.0 0.00 0.00 0.58 98 1015.9
20260904043340 18 198 0.0 0.0 0.00 0.00 0.58 98 1015.9
20260904043234 18 198 0.0 0.0 0.00 0.00 0.58 98 1015.9
20260904043129 18 198 0.0 0.0 0.00 0.00 0.58 98 1015.9
20260904043023 18 198 0.0 0.0 0.00 0.00 0.58 98 1015.9
20260904042956 18 198 0.0 0.0 0.00 0.00 0.58 98 1015.6
20260904042952 18 198 0.0 0.0 0.00 0.00 0.58 98 1015.9
20260904042944 18 198 0.0 0.0 0.00 0.00 0.58 98 1015.9
20260904042706 18 198 0.0 0.0 0.00 0.00 0.58 98 1015.6
20260904042600 18 198 0.0 0.0 0.00 0.00 0.58 98 1015.6
20260904042455 18 198 0.0 0.0 0.00 0.00 0.58 98 1015.6
20260904042349 18 198 0.0 0.0 0.00 0.00 0.58 98 1015.6
20260904042216 18 197 0.0 0.0 0.00 0.00 0.58 98 1015.9
20260904042138 18 197 0.0 0.0 0.00 0.00 0.58 98 1015.6
20260904042032 18 197 0.0 0.0 0.00 0.00 0.58 98 1015.9
20260904041926 18 197 0.0 0.0 0.00 0.00 0.58 98 1015.9
20260904041820 18 197 0.0 0.0 0.00 0.00 0.58 98 1015.9
20260904041714 18 197 0.0 0.0 0.00 0.00 0.58 98 1015.6
20260904041609 18 198 0.0 0.0 0.00 0.00 0.58 98 1015.9
20260904041503 18 202 0.0 0.0 0.00 0.00 0.58 98 1015.6
20260904041357 18 209 0.0 0.0 0.00 0.00 0.58 98 1015.6
20260904041252 18 214 0.0 0.0 0.00 0.00 0.58 98 1015.6
20260904041203 18 214 0.0 0.0 0.00 0.00 0.58 98 1015.6
20260904041148 18 214 0.0 0.0 0.00 0.00 0.58 98 1015.6
20260904041041 18 214 0.0 0.0 0.00 0.00 0.58 98 1015.6
20260904040935 18 214 0.0 0.0 0.00 0.00 0.58 98 1015.3
20260904040829 18 214 0.0 0.0 0.00 0.00 0.58 98 1015.6
20260904040723 18 213 0.0 0.0 0.00 0.00 0.58 98 1015.6
20260904040656 18 210 0.0 0.0 0.00 0.00 0.58 98 1015.6
20260904040617 18 210 0.0 0.0 0.00 0.00 0.58 98 1015.6
20260904040511 18 210 0.0 0.0 0.00 0.00 0.58 98 1015.3
20260904040405 18 210 0.0 0.0 0.00 0.00 0.58 98 1015.3
20260904040313 18 208 0.0 0.0 0.00 0.00 0.58 98 1015.3
20260904040154 18 208 0.0 0.0 0.00 0.00 0.58 98 1015.3
20260903153637 19 311 14.5 51.5 1.70 1.83 1.93 94 1017.7
20260903153530 20 343 14.5 51.5 1.50 1.63 1.75 94 1016.9
20260903153425 20 244 25.7 51.5 1.32 1.45 1.55 93 1016.9
20260903153319 21 237 0.0 33.8 1.04 1.17 1.37 93 1016.6
20260903153242 21 281 11.3 33.8 1.04 1.17 1.24 93 1016.6
20260903153214 22 341 19.3 33.8 0.71 0.84 1.14 92 1016.9
20260903153108 22 339 22.5 33.8 0.43 0.56 0.81 91 1016.9
20260903153002 24 283 19.3 33.8 0.10 0.23 0.53 89 1016.9
20260903152857 24 78 12.9 25.7 0.05 0.18 0.20 89 1017.3
20260903152750 25 261 6.4 9.7 0.05 0.18 0.15 89 1016.9
20260903152735 25 261 6.4 9.7 0.05 0.18 0.15 89 1016.6
20260903152646 25 233 4.8 6.4 0.00 0.13 0.15 89 1016.6
20260903152539 25 227 1.6 1.6 0.00 0.13 0.10 89 1015.9
20260903152434 25 225 0.0 1.6 0.00 0.13 0.10 88 1015.6
20260903152328 25 225 1.6 1.6 0.00 0.13 0.10 88 1015.6
20260903152222 25 211 0.0 1.6 0.00 0.13 0.10 88 1015.3
20260903152117 25 206 0.0 1.6 0.00 0.13 0.10 88 1015.3
20260903152011 25 206 0.0 1.6 0.00 0.13 0.10 88 1015.3
20260903151906 25 206 1.6 1.6 0.00 0.13 0.10 87 1014.9
20260903151759 25 205 1.6 1.6 0.00 0.13 0.10 87 1014.9
20260903151722 25 204 0.0 1.6 0.00 0.13 0.10 86 1014.9
20260903151653 25 195 0.0 1.6 0.00 0.13 0.10 86 1014.9
20260903151548 25 195 0.0 1.6 0.00 0.13 0.10 86 1014.9
20260903151442 25 195 0.0 1.6 0.00 0.13 0.10 86 1014.6
20260903151337 25 195 0.0 1.6 0.00 0.13 0.10 86 1014.9
20260903151230 25 195 0.0 1.6 0.00 0.13 0.10 86 1014.9
20260903151215 25 194 0.0 1.6 0.00 0.13 0.10 86 1014.9
20260903151125 25 196 0.0 1.6 0.00 0.13 0.10 86 1014.6
20260903151019 25 198 0.0 1.6 0.00 0.13 0.10 86 1014.9
20260903150914 25 185 0.0 1.6 0.00 0.13 0.10 86 1014.6
20260903150820 25 182 0.0 1.6 0.00 0.13 0.10 86 1014.2
20260903150708 25 213 0.0 1.6 0.00 0.13 0.10 86 1014.9
20260903150702 25 214 0.0 1.6 0.00 0.13 0.10 86 1014.9
20260903150609 25 214 0.0 1.6 0.00 0.13 0.10 86 1014.6
20260903150451 25 215 0.0 1.6 0.00 0.13 0.10 86 1014.6
20260903150345 25 214 0.0 3.2 0.00 0.13 0.10 86 1014.6
20260903150240 25 214 0.0 6.4 0.00 0.13 0.10 86 1014.9
20260903150202 25 214 0.0 6.4 0.00 0.13 0.10 85 1014.9
20260903150134 25 214 0.0 6.4 0.00 0.13 0.10 85 1014.2
20260903150029 25 214 0.0 6.4 0.00 0.13 0.10 85 1014.2
20260903145923 26 214 0.0 6.4 0.00 0.13 0.10 84 1014.2
20260903145817 26 195 0.0 6.4 0.00 0.13 0.10 84 1014.2